Flag for U.S.A. Weather past 2 weeks in Portsmouth, Virginia, U.S.A.

Now
75 °F

Passing clouds.


Feels Like: 77 °F
Forecast: 69 / 86 °F
Wind: No wind

Location: Norfolk Naval Air Station

Current Time: Aug 27, 2014 at 9:53:58 PM

Latest Report: Aug 27, 2014 at 8:59 PM


Visibility: 10 mi

Pressure: 29.95 "Hg

Humidity: 71%

Dew point: 65 °F

Location of PortsmouthLocation

Historic Weather in Portsmouth — Graph

°F

Portsmouth temperature yesterday

Maximum temperature yesterday: 80 °F (at 12:59 PM)
Minimum temperature yesterday: 72 °F (at 2:59 AM)
Average temperature yesterday: 75 °F

Past Weeks' High & Low Weather Summary

 TemperatureHumidityPressure
High89 °F (Aug 21, 1:59 PM)94% (Aug 19, 4:59 AM)30.15 "Hg (Aug 19, 4:59 AM)
Low70 °F (Aug 14, 5:59 AM)29% (Aug 14, 1:59 PM)29.76 "Hg (Aug 13, 2:59 AM)
Average78 °F70%29.98 "Hg
* Reported Aug 12 7:59 PM — Aug 27 7:59 PM, Portsmouth, Weather by CustomWeather, © 2014

Note: Actual official high and low records may vary slightly from our data, if they occured in-between our weather recording intervals... More about our weather records

Advertising

Portsmouth weather history for previous 24 hours

 ConditionsComfort  
Time TempWeatherWind HumidityBarometerVisibility
7:59 PM
Aug 27
76 °FPassing clouds.5 mph69%29.95 "Hg10 mi
6:59 PM80 °FScattered clouds.5 mph54%29.96 "Hg10 mi
5:59 PM81 °FScattered clouds.7 mph53%29.96 "Hg10 mi
4:59 PM82 °FScattered clouds.7 mph55%29.97 "Hg10 mi
3:59 PM82 °FScattered clouds.8 mph55%29.98 "Hg10 mi
2:59 PM82 °FScattered clouds.9 mph63%29.99 "Hg10 mi
1:59 PM80 °FScattered clouds.8 mph67%30.02 "Hg10 mi
12:59 PM80 °FScattered clouds.9 mph67%30.04 "Hg10 mi
11:59 AM80 °FScattered clouds.9 mph69%30.06 "Hg10 mi
10:59 AM76 °FScattered clouds.10 mph77%30.07 "Hg10 mi
9:59 AM77 °FScattered clouds.12 mph74%30.07 "Hg10 mi
8:59 AM76 °FScattered clouds.12 mph74%30.07 "Hg10 mi
7:59 AM75 °FScattered clouds.10 mph79%30.06 "Hg10 mi
6:59 AM74 °FPassing clouds.9 mph82%30.06 "Hg10 mi
5:59 AM73 °FPassing clouds.10 mph84%30.04 "Hg10 mi
4:59 AM74 °FPassing clouds.10 mph82%30.04 "Hg10 mi
3:59 AM74 °FPassing clouds.10 mph82%30.03 "Hg10 mi
2:59 AM73 °FPassing clouds.7 mph84%30.05 "Hg10 mi
1:59 AM73 °FPassing clouds.8 mph84%30.06 "Hg10 mi
12:59 AM73 °FPassing clouds.8 mph84%30.08 "Hg10 mi
11:59 PM
Aug 26
73 °FPassing clouds.8 mph84%30.09 "Hg10 mi
10:59 PM73 °FPassing clouds.9 mph84%30.10 "Hg10 mi
9:59 PM73 °FPassing clouds.7 mph81%30.10 "Hg10 mi
Weather by CustomWeather, © 2014

See weather overviewHow to use our weather pages